This is the latest recevied weather packets stored in our database for station/object KC5DAQ-29. If no packets are shown the sender has not sent any weather packets the latest 1 day(s).
| Time | Temp. | Humidity | Pressure | Rain* | Wind** | Luminosity | Snow |
|---|---|---|---|---|---|---|---|
| 1778027371 | 26.67° C | 100% | 1004.4 hPa | 0 mm | 0.89 m/s, 176° | 26 W/m² | - |
| 1778027283 | 26.67° C | 100% | 1004.4 hPa | 0 mm | 0.89 m/s, 176° | 26 W/m² | - |
| 1778027223 | 26.67° C | 100% | 1004.4 hPa | 0 mm | 0.89 m/s, 176° | 26 W/m² | - |
| 1778027163 | 26.67° C | 100% | 1004.4 hPa | 0 mm | 0.89 m/s, 176° | 26 W/m² | - |
| 1778027103 | 26.67° C | 100% | 1004.3 hPa | 0 mm | 0.89 m/s, 178° | 26 W/m² | - |
| 1778027042 | 26.67° C | 100% | 1004.4 hPa | 0 mm | 0.89 m/s, 203° | 26 W/m² | - |
| 1778026982 | 26.67° C | 100% | 1004.4 hPa | 0 mm | 1.34 m/s, 178° | 28 W/m² | - |
| 1778026921 | 26.67° C | 100% | 1004.3 hPa | 0 mm | 1.34 m/s, 145° | 28 W/m² | - |
| 1778026862 | 26.67° C | 100% | 1004.3 hPa | 0 mm | 1.79 m/s, 182° | 28 W/m² | - |
| 1778026804 | 27.22° C | 100% | 1004.4 hPa | 0 mm | 1.79 m/s, 127° | 28 W/m² | - |
| 1778026742 | 27.22° C | 100% | 1004.3 hPa | 0 mm | 1.34 m/s, 164° | 28 W/m² | - |
| 1778026682 | 27.22° C | 100% | 1004.3 hPa | 0 mm | 1.34 m/s, 175° | 23 W/m² | - |
| 1778026622 | 27.22° C | 100% | 1004.3 hPa | 0 mm | 0.89 m/s, 172° | 21 W/m² | - |
| 1778026562 | 27.22° C | 100% | 1004.4 hPa | 0 mm | 0.45 m/s, 134° | 19 W/m² | - |
| 1778026503 | 27.22° C | 100% | 1004.3 hPa | 0 mm | 0.45 m/s, 134° | 19 W/m² | - |
| 1778026443 | 27.22° C | 100% | 1004.4 hPa | 0 mm | 0.45 m/s, 155° | 18 W/m² | - |
| 1778026382 | 27.22° C | 100% | 1004.4 hPa | 0 mm | 0.89 m/s, 155° | 19 W/m² | - |
| 1778026322 | 27.22° C | 100% | 1004.4 hPa | 0 mm | 0.89 m/s, 179° | 28 W/m² | - |
| 1778026263 | 27.22° C | 100% | 1004.4 hPa | 0 mm | 1.34 m/s, 135° | 28 W/m² | - |
| 1778026203 | 27.22° C | 100% | 1004.4 hPa | 0 mm | 1.34 m/s, 127° | 28 W/m² | - |
| 1778026143 | 27.22° C | 100% | 1004.4 hPa | 0 mm | 1.34 m/s, 164° | 32 W/m² | - |
| 1778026083 | 27.22° C | 100% | 1004.4 hPa | 0 mm | 1.34 m/s, 176° | 32 W/m² | - |
| 1778026022 | 27.22° C | 100% | 1004.3 hPa | 0 mm | 0.89 m/s, 189° | 32 W/m² | - |
| 1778025961 | 27.22° C | 100% | 1004.3 hPa | 0 mm | 0.89 m/s, 175° | 42 W/m² | - |
| 1778025902 | 26.67° C | 100% | 1004.4 hPa | 0 mm | 1.34 m/s, 164° | 42 W/m² | - |
* Rain latest hour (hover to see other rain measurements)
** Current wind speed in m/s (hover to see current wind gust speed)